Time,TemperatureF,DewpointF,PressureIn,WindDirection,WindDirectionDegrees,WindSpeedMPH,WindSpeedGustMPH,Humidity,HourlyPrecipIn,Conditions,Clouds,dailyrainin,SolarRadiationWatts/m^2,SoftwareType,DateUTC
2013-06-25 00:01:00,73.4,64.2,30.00,WNW,292,0.4,0.4,73,0.00,,OVC,0.00,0.00,VWS V14.00,2013-06-25 04:01:00,
2013-06-25 00:06:00,73.2,64.4,30.00,NNW,338,0.0,0.0,74,0.00,,OVC,0.00,0.00,VWS V14.00,2013-06-25 04:06:00,
2013-06-25 00:11:00,73.2,64.4,30.00,NW,315,0.0,0.0,74,0.00,,OVC,0.00,0.00,VWS V14.00,2013-06-25 04:11:00,
2013-06-25 00:16:00,73.0,64.2,30.00,West,270,0.0,0.0,74,0.00,,OVC,0.00,0.00,VWS V14.00,2013-06-25 04:16:00,
2013-06-25 00:21:00,72.6,63.5,29.99,NW,315,0.0,0.0,73,0.00,,OVC,0.00,0.00,VWS V14.00,2013-06-25 04:21:00,
2013-06-25 00:26:00,72.6,63.5,30.00,NNW,338,0.0,0.0,73,0.00,,OVC,0.00,0.00,VWS V14.00,2013-06-25 04:26:00,
2013-06-25 00:31:00,72.6,63.5,30.00,NNW,338,0.0,0.0,73,0.00,,OVC,0.00,0.00,VWS V14.00,2013-06-25 04:31:00,
2013-06-25 00:36:00,72.5,63.4,30.00,NNW,338,0.0,0.0,73,0.00,,OVC,0.00,0.00,VWS V14.00,2013-06-25 04:36:00,
2013-06-25 00:41:00,72.3,63.2,30.00,NNW,338,0.0,0.0,73,0.00,,OVC,0.00,0.00,VWS V14.00,2013-06-25 04:41:00,
2013-06-25 00:46:00,72.3,63.6,30.00,NNW,338,0.0,0.0,74,0.00,,OVC,0.00,0.00,VWS V14.00,2013-06-25 04:46:00,
2013-06-25 00:51:00,72.1,63.4,30.00,NNW,338,0.0,0.0,74,0.00,,OVC,0.00,0.00,VWS V14.00,2013-06-25 04:51:00,
2013-06-25 00:56:00,71.9,63.2,30.00,NNW,338,0.0,0.0,74,0.00,,OVC,0.00,0.00,VWS V14.00,2013-06-25 04:56:00,
2013-06-25 01:01:00,71.9,63.5,30.00,NNW,338,0.0,0.0,75,0.00,,OVC,0.00,0.00,VWS V14.00,2013-06-25 05:01:00,
2013-06-25 01:06:00,71.9,63.5,30.00,SW,225,0.0,0.0,75,0.00,,OVC,0.00,0.00,VWS V14.00,2013-06-25 05:06:00,
2013-06-25 01:11:00,71.7,63.4,30.00,SW,225,0.0,0.0,75,0.00,,OVC,0.00,0.00,VWS V14.00,2013-06-25 05:11:00,
2013-06-25 01:16:00,71.7,63.7,30.00,SW,225,0.0,0.0,76,0.00,,OVC,0.00,0.00,VWS V14.00,2013-06-25 05:16:00,
2013-06-25 01:21:00,71.6,63.6,29.99,SW,225,0.0,0.0,76,0.00,,OVC,0.00,0.00,VWS V14.00,2013-06-25 05:21:00,
2013-06-25 01:26:00,71.4,63.5,29.99,SSW,202,0.0,0.0,76,0.00,,OVC,0.00,0.00,VWS V14.00,2013-06-25 05:26:00,
2013-06-25 01:31:00,71.2,63.3,29.99,SW,225,0.0,0.0,76,0.00,,OVC,0.00,0.00,VWS V14.00,2013-06-25 05:31:00,
2013-06-25 01:36:00,71.2,63.3,29.99,SW,225,0.0,0.0,76,0.00,,OVC,0.00,0.00,VWS V14.00,2013-06-25 05:36:00,
2013-06-25 01:41:00,71.0,63.1,29.99,SW,225,0.0,0.0,76,0.00,,OVC,0.00,0.00,VWS V14.00,2013-06-25 05:41:00,
2013-06-25 01:46:00,70.8,62.9,29.99,SW,225,0.0,0.0,76,0.00,,OVC,0.00,0.00,VWS V14.00,2013-06-25 05:46:00,
2013-06-25 01:51:00,70.8,63.2,29.99,SW,225,0.0,0.0,77,0.00,,OVC,0.00,0.00,VWS V14.00,2013-06-25 05:51:00,
2013-06-25 01:56:00,70.5,63.0,29.99,SW,225,0.0,0.0,77,0.00,,OVC,0.00,0.00,VWS V14.00,2013-06-25 05:56:00,
2013-06-25 02:01:00,70.5,63.0,29.99,SW,225,0.0,0.0,77,0.00,,OVC,0.00,0.00,VWS V14.00,2013-06-25 06:01:00,
2013-06-25 02:06:00,70.3,63.1,29.99,WSW,248,0.0,0.0,78,0.00,,OVC,0.00,0.00,VWS V14.00,2013-06-25 06:06:00,
2013-06-25 02:11:00,70.3,63.1,29.99,SW,225,0.0,0.0,78,0.00,,OVC,0.00,0.00,VWS V14.00,2013-06-25 06:11:00,
2013-06-25 02:16:00,70.1,62.9,29.99,SSW,202,0.0,0.0,78,0.00,,OVC,0.00,0.00,VWS V14.00,2013-06-25 06:16:00,
2013-06-25 02:21:00,69.9,62.7,29.99,SSW,202,0.0,0.0,78,0.00,,OVC,0.00,0.00,VWS V14.00,2013-06-25 06:21:00,
2013-06-25 02:26:00,69.9,62.7,29.98,SSW,202,0.0,0.0,78,0.00,,OVC,0.00,0.00,VWS V14.00,2013-06-25 06:26:00,
2013-06-25 02:31:00,69.8,62.6,29.98,SW,225,0.0,0.0,78,0.00,,OVC,0.00,0.00,VWS V14.00,2013-06-25 06:31:00,
2013-06-25 02:36:00,69.6,62.4,29.98,SW,225,0.0,0.0,78,0.00,,OVC,0.00,0.00,VWS V14.00,2013-06-25 06:36:00,
2013-06-25 02:41:00,69.6,62.8,29.99,SW,225,0.0,0.0,79,0.00,,OVC,0.00,0.00,VWS V14.00,2013-06-25 06:41:00,
2013-06-25 02:46:00,69.4,62.6,29.99,SW,225,0.0,0.0,79,0.00,,OVC,0.00,0.00,VWS V14.00,2013-06-25 06:46:00,
2013-06-25 02:51:00,69.2,62.4,29.99,SW,225,0.8,0.8,79,0.00,,OVC,0.00,0.00,VWS V14.00,2013-06-25 06:51:00,
2013-06-25 02:56:00,69.2,62.8,29.99,SW,225,0.0,0.0,80,0.00,,OVC,0.00,0.00,VWS V14.00,2013-06-25 06:56:00,
2013-06-25 03:01:00,69.0,62.6,29.99,SW,225,0.0,0.0,80,0.00,,OVC,0.00,0.00,VWS V14.00,2013-06-25 07:01:00,
2013-06-25 03:06:00,69.0,62.6,29.98,SW,225,0.0,0.0,80,0.00,,OVC,0.00,0.00,VWS V14.00,2013-06-25 07:06:00,
2013-06-25 03:11:00,68.9,62.5,29.98,SW,225,0.0,0.0,80,0.00,,OVC,0.00,0.00,VWS V14.00,2013-06-25 07:11:00,
2013-06-25 03:16:00,68.7,62.6,29.98,WSW,248,2.0,2.0,81,0.00,,OVC,0.00,0.00,VWS V14.00,2013-06-25 07:16:00,
2013-06-25 03:21:00,68.7,62.6,29.98,SW,225,0.0,0.0,81,0.00,,OVC,0.00,0.00,VWS V14.00,2013-06-25 07:21:00,
2013-06-25 03:26:00,68.5,62.5,29.98,SSW,202,0.0,0.0,81,0.00,,OVC,0.00,0.00,VWS V14.00,2013-06-25 07:26:00,
2013-06-25 03:31:00,68.5,62.5,29.98,SW,225,0.0,0.0,81,0.00,,OVC,0.00,0.00,VWS V14.00,2013-06-25 07:31:00,
2013-06-25 03:36:00,68.3,62.2,29.98,SW,225,0.0,0.0,81,0.00,,OVC,0.00,0.00,VWS V14.00,2013-06-25 07:36:00,
2013-06-25 03:41:00,68.3,62.2,29.98,SW,225,0.8,0.8,81,0.00,,OVC,0.00,0.00,VWS V14.00,2013-06-25 07:41:00,
2013-06-25 03:46:00,68.3,62.6,29.98,SW,225,0.0,0.0,82,0.00,,OVC,0.00,0.00,VWS V14.00,2013-06-25 07:46:00,
2013-06-25 03:51:00,68.1,62.4,29.97,SW,225,2.0,2.0,82,0.00,,OVC,0.00,0.00,VWS V14.00,2013-06-25 07:51:00,
2013-06-25 03:56:00,68.1,62.4,29.97,WSW,248,0.0,0.0,82,0.00,,OVC,0.00,0.00,VWS V14.00,2013-06-25 07:56:00,
2013-06-25 04:01:00,68.1,62.8,29.97,SW,225,0.0,0.0,83,0.00,,OVC,0.00,0.00,VWS V14.00,2013-06-25 08:01:00,
2013-06-25 04:06:00,68.1,62.8,29.97,WSW,248,0.0,0.0,83,0.00,,OVC,0.00,0.00,VWS V14.00,2013-06-25 08:06:00,
2013-06-25 04:11:00,68.1,62.8,29.96,WSW,248,0.0,0.0,83,0.00,,OVC,0.00,0.00,VWS V14.00,2013-06-25 08:11:00,
2013-06-25 04:16:00,68.1,63.1,29.96,WSW,248,0.0,0.0,84,0.00,,OVC,0.00,0.00,VWS V14.00,2013-06-25 08:16:00,
2013-06-25 04:21:00,68.1,63.1,29.96,West,270,0.0,0.0,84,0.00,,OVC,0.00,0.00,VWS V14.00,2013-06-25 08:21:00,
2013-06-25 04:26:00,68.1,63.1,29.96,WSW,248,0.0,0.0,84,0.00,,OVC,0.00,0.00,VWS V14.00,2013-06-25 08:26:00,
2013-06-25 04:31:00,68.1,63.1,29.96,West,270,0.0,0.0,84,0.00,,OVC,0.00,0.00,VWS V14.00,2013-06-25 08:31:00,
2013-06-25 04:36:00,68.1,63.4,29.97,SW,225,0.0,0.0,85,0.00,,OVC,0.00,0.00,VWS V14.00,2013-06-25 08:36:00,
2013-06-25 04:41:00,68.1,63.4,29.97,West,270,0.0,0.0,85,0.00,,OVC,0.00,0.00,VWS V14.00,2013-06-25 08:41:00,
2013-06-25 04:46:00,68.1,63.4,29.96,SW,225,0.6,0.6,85,0.00,,OVC,0.00,0.00,VWS V14.00,2013-06-25 08:46:00,
2013-06-25 04:51:00,68.1,63.4,29.96,SW,225,0.8,0.8,85,0.00,,OVC,0.00,0.00,VWS V14.00,2013-06-25 08:51:00,
2013-06-25 04:56:00,68.1,63.4,29.96,SW,225,0.0,0.0,85,0.00,,OVC,0.00,0.00,VWS V14.00,2013-06-25 08:56:00,
2013-06-25 05:01:00,68.3,63.6,29.96,WSW,248,0.0,0.0,85,0.00,,OVC,0.00,0.00,VWS V14.00,2013-06-25 09:01:00,
2013-06-25 05:06:00,68.3,63.6,29.96,SW,225,0.0,0.0,85,0.00,,OVC,0.00,0.00,VWS V14.00,2013-06-25 09:06:00,
2013-06-25 05:11:00,68.5,64.2,29.97,South,180,0.0,0.0,86,0.00,,OVC,0.00,0.00,VWS V14.00,2013-06-25 09:11:00,
2013-06-25 05:16:00,68.3,64.0,29.97,West,270,0.0,0.0,86,0.00,,OVC,0.00,0.00,VWS V14.00,2013-06-25 09:16:00,
2013-06-25 05:21:00,68.5,64.2,29.97,WSW,248,0.0,0.0,86,0.00,,OVC,0.00,0.00,VWS V14.00,2013-06-25 09:21:00,
2013-06-25 05:26:00,68.5,64.2,29.96,NW,315,7.3,7.3,86,0.00,,OVC,0.00,0.00,VWS V14.00,2013-06-25 09:26:00,
2013-06-25 05:31:00,68.5,64.2,29.97,WSW,248,0.0,0.0,86,0.00,,OVC,0.00,0.00,VWS V14.00,2013-06-25 09:31:00,
2013-06-25 05:36:00,68.5,64.2,29.97,WSW,248,0.8,0.8,86,0.00,,OVC,0.00,0.00,VWS V14.00,2013-06-25 09:36:00,
2013-06-25 05:41:00,68.7,64.3,29.97,West,270,3.5,3.5,86,0.00,,OVC,0.00,0.00,VWS V14.00,2013-06-25 09:41:00,
2013-06-25 05:46:00,68.7,64.3,29.97,SW,225,16.5,16.5,86,0.00,,OVC,0.00,0.00,VWS V14.00,2013-06-25 09:46:00,
2013-06-25 05:51:00,68.7,64.3,29.97,WSW,248,3.1,3.1,86,0.00,,OVC,0.00,0.00,VWS V14.00,2013-06-25 09:51:00,
2013-06-25 05:56:00,68.9,64.6,29.97,WSW,248,3.1,3.1,86,0.00,,OVC,0.00,0.00,VWS V14.00,2013-06-25 09:56:00,
2013-06-25 06:01:00,69.0,64.6,29.97,WSW,248,3.1,3.1,86,0.00,,OVC,0.00,0.00,VWS V14.00,2013-06-25 10:01:00,
2013-06-25 06:06:00,69.2,64.8,29.97,WSW,248,3.1,3.1,86,0.00,,OVC,0.00,0.00,VWS V14.00,2013-06-25 10:06:00,
2013-06-25 06:11:00,69.4,65.0,29.97,WSW,248,3.1,3.1,86,0.00,,OVC,0.00,0.00,VWS V14.00,2013-06-25 10:11:00,
2013-06-25 06:16:00,69.6,65.2,29.97,WSW,248,3.1,3.1,86,0.00,,OVC,0.00,0.00,VWS V14.00,2013-06-25 10:16:00,
2013-06-25 06:21:00,69.8,65.4,29.97,WSW,248,3.1,3.1,86,0.00,,OVC,0.00,0.00,VWS V14.00,2013-06-25 10:21:00,
2013-06-25 06:26:00,70.1,65.7,29.97,WSW,248,3.1,3.1,86,0.00,,OVC,0.00,0.00,VWS V14.00,2013-06-25 10:26:00,
2013-06-25 06:31:00,70.3,65.9,29.97,WSW,248,3.1,3.1,86,0.00,,OVC,0.00,0.00,VWS V14.00,2013-06-25 10:31:00,
2013-06-25 06:36:00,70.7,66.3,29.97,WSW,248,3.1,3.1,86,0.00,,OVC,0.00,0.00,VWS V14.00,2013-06-25 10:36:00,
2013-06-25 06:41:00,71.2,66.8,29.97,WSW,248,3.1,3.1,86,0.00,,OVC,0.00,0.00,VWS V14.00,2013-06-25 10:41:00,
2013-06-25 06:46:00,71.4,66.7,29.97,WSW,248,3.1,3.1,85,0.00,,OVC,0.00,0.00,VWS V14.00,2013-06-25 10:46:00,
2013-06-25 06:51:00,71.7,66.9,29.97,WSW,248,3.1,3.1,85,0.00,,OVC,0.00,0.00,VWS V14.00,2013-06-25 10:51:00,
2013-06-25 06:56:00,72.1,67.3,29.97,WSW,248,3.1,3.1,85,0.00,,OVC,0.00,0.00,VWS V14.00,2013-06-25 10:56:00,
2013-06-25 07:01:00,72.5,67.4,29.97,WSW,248,3.1,3.1,84,0.00,,OVC,0.00,0.00,VWS V14.00,2013-06-25 11:01:00,
2013-06-25 07:06:00,74.8,70.0,29.97,WSW,248,3.1,3.1,85,0.00,,OVC,0.00,0.00,VWS V14.00,2013-06-25 11:06:00,
2013-06-25 07:11:00,77.3,71.4,29.97,WSW,248,3.1,3.1,82,0.00,,OVC,0.00,0.00,VWS V14.00,2013-06-25 11:11:00,
2013-06-25 07:16:00,79.5,72.4,29.97,WSW,248,3.1,3.1,79,0.00,,OVC,0.00,0.00,VWS V14.00,2013-06-25 11:16:00,
2013-06-25 07:21:00,82.5,73.8,29.97,WSW,248,3.1,3.1,75,0.00,,OVC,0.00,0.00,VWS V14.00,2013-06-25 11:21:00,
2013-06-25 07:26:00,85.1,74.2,29.97,WSW,248,3.1,3.1,70,0.00,,OVC,0.00,0.00,VWS V14.00,2013-06-25 11:26:00,
2013-06-25 07:31:00,87.4,75.1,29.97,WSW,248,3.1,3.1,67,0.00,,OVC,0.00,0.00,VWS V14.00,2013-06-25 11:31:00,
2013-06-25 07:36:00,89.2,75.0,29.97,WSW,248,3.1,3.1,63,0.00,,OVC,0.00,0.00,VWS V14.00,2013-06-25 11:36:00,
2013-06-25 07:41:00,90.6,74.3,29.96,WNW,292,1.7,1.7,59,0.00,,OVC,0.00,0.00,VWS V14.00,2013-06-25 11:41:00,
2013-06-25 07:46:00,92.3,74.9,29.97,SW,225,3.1,3.1,57,0.00,,OVC,0.00,0.00,VWS V14.00,2013-06-25 11:46:00,
2013-06-25 07:51:00,93.2,74.6,29.97,WSW,248,0.0,0.0,55,0.00,,OVC,0.00,0.00,VWS V14.00,2013-06-25 11:51:00,
2013-06-25 07:56:00,93.9,74.7,29.97,NW,315,1.1,1.1,54,0.00,,OVC,0.00,0.00,VWS V14.00,2013-06-25 11:56:00,
2013-06-25 08:01:00,94.2,73.9,29.97,SW,225,2.2,2.2,52,0.00,,OVC,0.00,0.00,VWS V14.00,2013-06-25 12:01:00,
2013-06-25 08:06:00,95.1,74.7,29.97,South,180,0.0,0.0,52,0.00,,OVC,0.00,0.00,VWS V14.00,2013-06-25 12:06:00,
2013-06-25 08:11:00,95.1,74.1,29.96,SW,225,0.6,0.6,51,0.00,,OVC,0.00,0.00,VWS V14.00,2013-06-25 12:11:00,
2013-06-25 08:16:00,95.1,73.6,29.96,SW,225,0.2,0.2,50,0.00,,OVC,0.00,0.00,VWS V14.00,2013-06-25 12:16:00,
2013-06-25 08:21:00,95.1,73.6,29.96,West,270,0.0,0.0,50,0.00,,OVC,0.00,0.00,VWS V14.00,2013-06-25 12:21:00,
2013-06-25 08:26:00,95.7,74.1,29.96,WSW,248,2.6,2.6,50,0.00,,OVC,0.00,0.00,VWS V14.00,2013-06-25 12:26:00,
2013-06-25 08:31:00,95.9,74.3,29.96,West,270,3.3,3.3,50,0.00,,OVC,0.00,0.00,VWS V14.00,2013-06-25 12:31:00,
2013-06-25 08:36:00,95.7,74.1,29.96,SSE,158,0.0,0.0,50,0.00,,OVC,0.00,0.00,VWS V14.00,2013-06-25 12:36:00,
2013-06-25 08:41:00,95.7,74.1,29.96,West,270,4.0,4.0,50,0.00,,OVC,0.00,0.00,VWS V14.00,2013-06-25 12:41:00,
2013-06-25 08:46:00,95.7,74.1,29.96,SSW,202,0.0,0.0,50,0.00,,OVC,0.00,0.00,VWS V14.00,2013-06-25 12:46:00,
2013-06-25 08:51:00,95.1,73.6,29.96,NW,315,0.0,0.0,50,0.00,,OVC,0.00,0.00,VWS V14.00,2013-06-25 12:51:00,
2013-06-25 08:56:00,95.1,73.6,29.96,WNW,292,6.2,6.2,50,0.00,,OVC,0.00,0.00,VWS V14.00,2013-06-25 12:56:00,
2013-06-25 09:01:00,94.8,73.9,29.96,NW,315,5.5,5.5,51,0.00,,OVC,0.00,0.00,VWS V14.00,2013-06-25 13:01:00,
2013-06-25 09:06:00,94.6,73.7,29.95,WNW,292,1.5,1.5,51,0.00,,OVC,0.00,0.00,VWS V14.00,2013-06-25 13:06:00,
2013-06-25 09:11:00,94.8,73.9,29.96,SW,225,0.0,0.0,51,0.00,,OVC,0.00,0.00,VWS V14.00,2013-06-25 13:11:00,
2013-06-25 09:16:00,95.3,74.3,29.95,WNW,292,0.0,0.0,51,0.00,,OVC,0.00,0.00,VWS V14.00,2013-06-25 13:16:00,
2013-06-25 09:21:00,95.7,74.7,29.95,WNW,292,1.5,1.5,51,0.00,,OVC,0.00,0.00,VWS V14.00,2013-06-25 13:21:00,
2013-06-25 09:26:00,95.7,74.1,29.96,SW,225,0.0,0.0,50,0.00,,OVC,0.00,0.00,VWS V14.00,2013-06-25 13:26:00,
2013-06-25 09:31:00,96.2,75.2,29.96,WNW,292,1.5,1.5,51,0.00,,OVC,0.00,0.00,VWS V14.00,2013-06-25 13:31:00,
2013-06-25 09:36:00,96.2,74.6,29.96,SSW,202,1.3,1.3,50,0.00,,OVC,0.00,0.00,VWS V14.00,2013-06-25 13:36:00,
2013-06-25 09:41:00,96.0,74.4,29.96,WSW,248,2.9,2.9,50,0.00,,OVC,0.00,0.00,VWS V14.00,2013-06-25 13:41:00,
2013-06-25 09:46:00,95.9,74.3,29.96,NW,315,3.5,3.5,50,0.00,,OVC,0.00,0.00,VWS V14.00,2013-06-25 13:46:00,
2013-06-25 09:51:00,95.9,74.9,29.96,WNW,292,4.9,4.9,51,0.00,,OVC,0.00,0.00,VWS V14.00,2013-06-25 13:51:00,
2013-06-25 09:56:00,96.0,75.0,29.96,North,0,0.0,0.0,51,0.00,,OVC,0.00,0.00,VWS V14.00,2013-06-25 13:56:00,
2013-06-25 10:01:00,96.0,75.0,29.96,NNE,22,0.0,0.0,51,0.00,,OVC,0.00,0.00,VWS V14.00,2013-06-25 14:01:00,
2013-06-25 10:06:00,96.4,75.3,29.96,NW,315,0.0,0.0,51,0.00,,OVC,0.00,0.00,VWS V14.00,2013-06-25 14:06:00,
2013-06-25 10:11:00,96.6,74.9,29.95,WSW,248,1.1,1.1,50,0.00,,OVC,0.00,0.00,VWS V14.00,2013-06-25 14:11:00,
2013-06-25 10:16:00,96.9,75.8,29.95,WNW,292,0.0,0.0,51,0.00,,OVC,0.00,0.00,VWS V14.00,2013-06-25 14:16:00,
2013-06-25 10:21:00,96.6,74.3,29.95,WNW,292,0.0,0.0,49,0.00,,OVC,0.00,0.00,VWS V14.00,2013-06-25 14:21:00,
2013-06-25 10:26:00,96.4,74.7,29.96,SSE,158,1.7,1.7,50,0.00,,OVC,0.00,0.00,VWS V14.00,2013-06-25 14:26:00,
2013-06-25 10:31:00,96.8,75.7,29.96,West,270,2.2,2.2,51,0.00,,OVC,0.00,0.00,VWS V14.00,2013-06-25 14:31:00,
2013-06-25 10:36:00,96.9,75.8,29.96,WSW,248,2.0,2.0,51,0.00,,OVC,0.00,0.00,VWS V14.00,2013-06-25 14:36:00,
2013-06-25 10:41:00,97.3,75.6,29.96,West,270,2.2,2.2,50,0.00,,OVC,0.00,0.00,VWS V14.00,2013-06-25 14:41:00,
2013-06-25 10:46:00,97.1,75.4,29.95,West,270,0.0,0.0,50,0.00,,OVC,0.00,0.00,VWS V14.00,2013-06-25 14:46:00,
2013-06-25 10:51:00,97.1,74.8,29.95,NNE,22,0.0,0.0,49,0.00,,OVC,0.00,0.00,VWS V14.00,2013-06-25 14:51:00,
2013-06-25 10:56:00,96.6,74.9,29.95,NE,45,5.1,5.1,50,0.00,,OVC,0.00,0.00,VWS V14.00,2013-06-25 14:56:00,
2013-06-25 11:01:00,96.9,75.8,29.95,NNW,338,2.2,2.2,51,0.00,,OVC,0.00,0.00,VWS V14.00,2013-06-25 15:01:00,
2013-06-25 11:05:00,96.9,75.2,29.95,NE,45,4.0,4.0,50,0.00,,OVC,0.00,0.00,VWS V14.00,2013-06-25 15:05:00,
2013-06-25 11:10:00,97.5,76.3,29.95,SW,225,5.3,5.3,51,0.00,,OVC,0.00,0.00,VWS V14.00,2013-06-25 15:10:00,
2013-06-25 11:15:00,97.8,76.0,29.95,SW,225,3.8,3.8,50,0.00,,OVC,0.00,0.00,VWS V14.00,2013-06-25 15:15:00,
2013-06-25 11:21:00,98.2,75.8,29.95,West,270,3.1,3.1,49,0.00,,OVC,0.00,0.00,VWS V14.00,2013-06-25 15:21:00,
2013-06-25 11:26:00,98.2,75.8,29.95,WNW,292,2.2,2.2,49,0.00,,OVC,0.00,0.00,VWS V14.00,2013-06-25 15:26:00,
2013-06-25 11:31:00,98.4,75.3,29.95,WSW,248,3.8,3.8,48,0.00,,OVC,0.00,0.00,VWS V14.00,2013-06-25 15:31:00,
2013-06-25 11:36:00,98.4,75.3,29.95,SW,225,0.4,0.4,48,0.00,,OVC,0.00,0.00,VWS V14.00,2013-06-25 15:36:00,
2013-06-25 11:40:00,98.0,75.6,29.95,NNE,22,3.8,3.8,49,0.00,,OVC,0.00,0.00,VWS V14.00,2013-06-25 15:40:00,
2013-06-25 11:45:00,98.0,75.6,29.95,West,270,0.8,0.8,49,0.00,,OVC,0.00,0.00,VWS V14.00,2013-06-25 15:45:00,
2013-06-25 11:51:00,98.4,76.6,29.95,WSW,248,1.7,1.7,50,0.00,,OVC,0.00,0.00,VWS V14.00,2013-06-25 15:51:00,
2013-06-25 11:56:00,98.6,76.1,29.95,WSW,248,1.3,1.3,49,0.00,,OVC,0.00,0.00,VWS V14.00,2013-06-25 15:56:00,
2013-06-25 12:01:00,98.6,76.1,29.95,West,270,1.5,1.5,49,0.00,,OVC,0.00,0.00,VWS V14.00,2013-06-25 16:01:00,
2013-06-25 12:06:00,98.7,76.2,29.95,West,270,0.0,0.0,49,0.00,,OVC,0.00,0.00,VWS V14.00,2013-06-25 16:06:00,
2013-06-25 12:11:00,99.1,76.6,29.95,North,0,0.0,0.0,49,0.00,,OVC,0.00,0.00,VWS V14.00,2013-06-25 16:11:00,
2013-06-25 12:16:00,98.7,75.6,29.95,West,270,6.9,6.9,48,0.00,,OVC,0.00,0.00,VWS V14.00,2013-06-25 16:16:00,
2013-06-25 12:21:00,98.7,75.6,29.95,SW,225,0.0,0.0,48,0.00,,OVC,0.00,0.00,VWS V14.00,2013-06-25 16:21:00,
2013-06-25 12:26:00,98.6,75.5,29.94,West,270,6.2,6.2,48,0.00,,OVC,0.00,0.00,VWS V14.00,2013-06-25 16:26:00,
2013-06-25 12:31:00,98.7,75.6,29.94,West,270,7.3,7.3,48,0.00,,OVC,0.00,0.00,VWS V14.00,2013-06-25 16:31:00,
2013-06-25 12:36:00,98.9,75.2,29.94,SW,225,2.0,2.0,47,0.00,,OVC,0.00,0.00,VWS V14.00,2013-06-25 16:36:00,
2013-06-25 12:41:00,99.1,75.3,29.94,SW,225,4.4,4.4,47,0.00,,OVC,0.00,0.00,VWS V14.00,2013-06-25 16:41:00,
2013-06-25 12:46:00,99.1,75.3,29.94,NW,315,9.3,9.3,47,0.00,,OVC,0.00,0.00,VWS V14.00,2013-06-25 16:46:00,
2013-06-25 12:51:00,99.1,75.3,29.93,NW,315,1.3,1.3,47,0.00,,OVC,0.00,0.00,VWS V14.00,2013-06-25 16:51:00,
2013-06-25 12:56:00,99.1,75.3,29.93,SW,225,4.0,4.0,47,0.00,,OVC,0.00,0.00,VWS V14.00,2013-06-25 16:56:00,
2013-06-25 13:01:00,99.1,76.0,29.93,WSW,248,2.9,2.9,48,0.00,,OVC,0.00,0.00,VWS V14.00,2013-06-25 17:01:00,
2013-06-25 13:06:00,99.3,75.5,29.93,SSW,202,3.5,3.5,47,0.00,,OVC,0.00,0.00,VWS V14.00,2013-06-25 17:06:00,
2013-06-25 13:11:00,99.1,75.3,29.93,NNW,338,0.6,0.6,47,0.00,,OVC,0.00,0.00,VWS V14.00,2013-06-25 17:11:00,
2013-06-25 13:16:00,99.1,76.0,29.93,WSW,248,5.8,5.8,48,0.00,,OVC,0.00,0.00,VWS V14.00,2013-06-25 17:16:00,
2013-06-25 13:21:00,98.4,74.1,29.92,NW,315,3.8,3.8,46,0.00,,OVC,0.00,0.00,VWS V14.00,2013-06-25 17:21:00,
2013-06-25 13:26:00,97.5,73.9,29.92,WNW,292,4.2,4.2,47,0.00,,OVC,0.00,0.00,VWS V14.00,2013-06-25 17:26:00,
2013-06-25 13:31:00,96.9,74.0,29.91,WNW,292,4.0,4.0,48,0.00,,OVC,0.00,0.00,VWS V14.00,2013-06-25 17:31:00,
2013-06-25 13:36:00,96.6,74.3,29.91,WSW,248,0.8,0.8,49,0.00,,OVC,0.00,0.00,VWS V14.00,2013-06-25 17:36:00,
2013-06-25 13:41:00,96.9,74.0,29.91,WSW,248,18.7,18.7,48,0.00,,OVC,0.00,0.00,VWS V14.00,2013-06-25 17:41:00,
2013-06-25 13:46:00,97.1,74.2,29.91,WNW,292,4.9,4.9,48,0.00,,OVC,0.00,0.00,VWS V14.00,2013-06-25 17:46:00,
2013-06-25 13:51:00,96.6,73.7,29.91,South,180,0.8,0.8,48,0.00,,OVC,0.00,0.00,VWS V14.00,2013-06-25 17:51:00,
2013-06-25 13:56:00,96.0,73.2,29.91,WSW,248,3.5,3.5,48,0.00,,OVC,0.00,0.00,VWS V14.00,2013-06-25 17:56:00,
2013-06-25 14:01:00,95.9,73.7,29.91,SW,225,5.1,5.1,49,0.00,,OVC,0.00,0.00,VWS V14.00,2013-06-25 18:01:00,
2013-06-25 14:06:00,96.0,73.8,29.91,SW,225,6.2,6.2,49,0.00,,OVC,0.00,0.00,VWS V14.00,2013-06-25 18:06:00,
2013-06-25 14:11:00,95.9,73.7,29.91,West,270,6.0,6.0,49,0.00,,OVC,0.00,0.00,VWS V14.00,2013-06-25 18:11:00,
2013-06-25 14:16:00,95.7,73.5,29.91,West,270,1.7,1.7,49,0.00,,OVC,0.00,0.00,VWS V14.00,2013-06-25 18:16:00,
2013-06-25 14:21:00,95.1,73.6,29.91,WSW,248,5.3,5.3,50,0.00,,OVC,0.00,0.00,VWS V14.00,2013-06-25 18:21:00,
2013-06-25 14:26:00,95.1,73.6,29.90,West,270,15.8,15.8,50,0.00,,OVC,0.00,0.00,VWS V14.00,2013-06-25 18:26:00,
2013-06-25 14:31:00,95.1,72.9,29.90,SW,225,2.6,2.6,49,0.00,,OVC,0.00,0.00,VWS V14.00,2013-06-25 18:31:00,
2013-06-25 14:36:00,94.8,72.7,29.90,WSW,248,2.2,2.2,49,0.00,,OVC,0.00,0.00,VWS V14.00,2013-06-25 18:36:00,
2013-06-25 14:41:00,94.8,73.3,29.89,WSW,248,7.8,7.8,50,0.00,,OVC,0.00,0.00,VWS V14.00,2013-06-25 18:41:00,
2013-06-25 14:46:00,94.8,73.3,29.89,WSW,248,5.3,5.3,50,0.00,,OVC,0.00,0.00,VWS V14.00,2013-06-25 18:46:00,
2013-06-25 14:51:00,95.1,72.9,29.89,WSW,248,0.6,0.6,49,0.00,,OVC,0.00,0.00,VWS V14.00,2013-06-25 18:51:00,
2013-06-25 14:56:00,94.8,72.7,29.89,WSW,248,6.9,6.9,49,0.00,,OVC,0.00,0.00,VWS V14.00,2013-06-25 18:56:00,
2013-06-25 15:01:00,94.8,72.7,29.89,WNW,292,17.8,17.8,49,0.00,,OVC,0.00,0.00,VWS V14.00,2013-06-25 19:01:00,
2013-06-25 15:06:00,94.6,71.9,29.89,West,270,7.8,7.8,48,0.00,,OVC,0.00,0.00,VWS V14.00,2013-06-25 19:06:00,
2013-06-25 15:11:00,94.2,72.1,29.89,SW,225,4.0,4.0,49,0.00,,OVC,0.00,0.00,VWS V14.00,2013-06-25 19:11:00,
2013-06-25 15:16:00,93.9,72.4,29.89,SW,225,0.6,0.6,50,0.00,,OVC,0.00,0.00,VWS V14.00,2013-06-25 19:16:00,
2013-06-25 15:21:00,93.9,72.4,29.88,WNW,292,4.2,4.2,50,0.00,,OVC,0.00,0.00,VWS V14.00,2013-06-25 19:21:00,
2013-06-25 15:26:00,93.5,72.1,29.88,West,270,5.3,5.3,50,0.00,,OVC,0.00,0.00,VWS V14.00,2013-06-25 19:26:00,
2013-06-25 15:31:00,93.5,72.1,29.88,WSW,248,4.2,4.2,50,0.00,,OVC,0.00,0.00,VWS V14.00,2013-06-25 19:31:00,
2013-06-25 15:36:00,93.3,71.9,29.87,SW,225,3.1,3.1,50,0.00,,OVC,0.00,0.00,VWS V14.00,2013-06-25 19:36:00,
2013-06-25 15:41:00,93.3,72.5,29.87,SW,225,3.1,3.1,51,0.00,,OVC,0.00,0.00,VWS V14.00,2013-06-25 19:41:00,
2013-06-25 15:46:00,93.3,72.5,29.87,WNW,292,13.6,13.6,51,0.00,,OVC,0.00,0.00,VWS V14.00,2013-06-25 19:46:00,
2013-06-25 15:51:00,92.8,72.0,29.87,SW,225,4.4,4.4,51,0.00,,OVC,0.00,0.00,VWS V14.00,2013-06-25 19:51:00,
2013-06-25 15:56:00,92.6,71.3,29.87,WSW,248,4.6,4.6,50,0.00,,OVC,0.00,0.00,VWS V14.00,2013-06-25 19:56:00,
2013-06-25 16:01:00,92.4,71.7,29.87,WSW,248,4.4,4.4,51,0.00,,OVC,0.00,0.00,VWS V14.00,2013-06-25 20:01:00,
2013-06-25 16:06:00,92.1,71.4,29.87,West,270,4.4,4.4,51,0.00,,OVC,0.00,0.00,VWS V14.00,2013-06-25 20:06:00,
2013-06-25 16:11:00,91.9,71.2,29.86,WSW,248,21.6,21.6,51,0.00,,OVC,0.00,0.00,VWS V14.00,2013-06-25 20:11:00,
2013-06-25 16:16:00,91.9,71.8,29.86,SW,225,3.8,3.8,52,0.00,,OVC,0.00,0.00,VWS V14.00,2013-06-25 20:16:00,
2013-06-25 16:21:00,91.9,71.2,29.86,WSW,248,8.9,8.9,51,0.00,,OVC,0.00,0.00,VWS V14.00,2013-06-25 20:21:00,
2013-06-25 16:26:00,91.7,71.0,29.86,SW,225,3.3,3.3,51,0.00,,OVC,0.00,0.00,VWS V14.00,2013-06-25 20:26:00,
2013-06-25 16:31:00,91.5,70.8,29.87,West,270,2.9,2.9,51,0.00,,OVC,0.00,0.00,VWS V14.00,2013-06-25 20:31:00,
2013-06-25 16:36:00,91.5,71.4,29.87,West,270,2.0,2.0,52,0.00,,OVC,0.00,0.00,VWS V14.00,2013-06-25 20:36:00,
2013-06-25 16:41:00,91.0,70.9,29.86,West,270,3.5,3.5,52,0.00,,OVC,0.00,0.00,VWS V14.00,2013-06-25 20:41:00,
2013-06-25 16:46:00,90.6,70.6,29.86,South,180,1.1,1.1,52,0.00,,OVC,0.00,0.00,VWS V14.00,2013-06-25 20:46:00,
2013-06-25 16:51:00,90.3,70.3,29.86,SW,225,3.8,3.8,52,0.00,,OVC,0.00,0.00,VWS V14.00,2013-06-25 20:51:00,
2013-06-25 16:56:00,89.9,69.4,29.86,West,270,3.1,3.1,51,0.00,,OVC,0.00,0.00,VWS V14.00,2013-06-25 20:56:00,
2013-06-25 17:01:00,89.7,70.3,29.86,West,270,4.2,4.2,53,0.00,,OVC,0.00,0.00,VWS V14.00,2013-06-25 21:01:00,
2013-06-25 17:06:00,89.9,70.5,29.86,West,270,1.7,1.7,53,0.00,,OVC,0.00,0.00,VWS V14.00,2013-06-25 21:06:00,
2013-06-25 17:11:00,90.1,70.7,29.86,SW,225,2.4,2.4,53,0.00,,OVC,0.00,0.00,VWS V14.00,2013-06-25 21:11:00,
2013-06-25 17:16:00,90.1,70.7,29.86,SW,225,6.4,6.4,53,0.00,,OVC,0.00,0.00,VWS V14.00,2013-06-25 21:16:00,
2013-06-25 17:21:00,89.7,70.3,29.87,SW,225,0.0,0.0,53,0.00,,OVC,0.00,0.00,VWS V14.00,2013-06-25 21:21:00,
2013-06-25 17:26:00,89.9,71.0,29.86,NW,315,3.3,3.3,54,0.00,,OVC,0.00,0.00,VWS V14.00,2013-06-25 21:26:00,
2013-06-25 17:31:00,89.7,70.9,29.86,WSW,248,2.6,2.6,54,0.00,,OVC,0.00,0.00,VWS V14.00,2013-06-25 21:31:00,
2013-06-25 17:36:00,89.7,70.9,29.85,West,270,1.7,1.7,54,0.00,,OVC,0.00,0.00,VWS V14.00,2013-06-25 21:36:00,
2013-06-25 17:41:00,89.7,70.9,29.85,WSW,248,19.0,19.0,54,0.00,,OVC,0.00,0.00,VWS V14.00,2013-06-25 21:41:00,
2013-06-25 17:46:00,89.7,70.9,29.85,SW,225,3.1,3.1,54,0.00,,OVC,0.00,0.00,VWS V14.00,2013-06-25 21:46:00,
2013-06-25 17:51:00,89.4,71.1,29.85,SSW,202,1.7,1.7,55,0.00,,OVC,0.00,0.00,VWS V14.00,2013-06-25 21:51:00,
2013-06-25 17:56:00,89.4,71.1,29.84,West,270,2.6,2.6,55,0.00,,OVC,0.00,0.00,VWS V14.00,2013-06-25 21:56:00,
2013-06-25 18:01:00,88.8,70.6,29.84,WNW,292,3.1,3.1,55,0.00,,OVC,0.00,0.00,VWS V14.00,2013-06-25 22:01:00,
2013-06-25 18:06:00,88.7,71.0,29.84,West,270,5.1,5.1,56,0.00,,OVC,0.00,0.00,VWS V14.00,2013-06-25 22:06:00,
2013-06-25 18:11:00,88.3,70.1,29.84,SSW,202,1.5,1.5,55,0.00,,OVC,0.00,0.00,VWS V14.00,2013-06-25 22:11:00,
2013-06-25 18:16:00,88.1,69.9,29.84,SSW,202,2.2,2.2,55,0.00,,OVC,0.00,0.00,VWS V14.00,2013-06-25 22:16:00,
2013-06-25 18:21:00,87.6,69.4,29.84,North,0,0.0,0.0,55,0.00,,OVC,0.00,0.00,VWS V14.00,2013-06-25 22:21:00,
2013-06-25 18:26:00,87.6,70.0,29.84,SSW,202,5.1,5.1,56,0.00,,OVC,0.00,0.00,VWS V14.00,2013-06-25 22:26:00,
2013-06-25 18:31:00,87.0,68.9,29.84,WSW,248,4.4,4.4,55,0.00,,OVC,0.00,0.00,VWS V14.00,2013-06-25 22:31:00,
2013-06-25 18:36:00,86.7,69.1,29.84,SSW,202,10.9,10.9,56,0.00,,OVC,0.00,0.00,VWS V14.00,2013-06-25 22:36:00,
2013-06-25 18:41:00,86.5,69.0,29.85,WSW,248,8.7,8.7,56,0.00,,OVC,0.00,0.00,VWS V14.00,2013-06-25 22:41:00,
2013-06-25 18:46:00,86.3,69.3,29.85,WNW,292,1.1,1.1,57,0.00,,OVC,0.00,0.00,VWS V14.00,2013-06-25 22:46:00,
2013-06-25 18:51:00,86.1,69.1,29.84,WSW,248,5.5,5.5,57,0.00,,OVC,0.00,0.00,VWS V14.00,2013-06-25 22:51:00,
2013-06-25 18:56:00,85.6,69.1,29.85,WSW,248,0.2,0.2,58,0.00,,OVC,0.00,0.00,VWS V14.00,2013-06-25 22:56:00,
2013-06-25 19:01:00,85.4,69.4,29.85,WSW,248,6.7,6.7,59,0.00,,OVC,0.00,0.00,VWS V14.00,2013-06-25 23:01:00,
2013-06-25 19:06:00,85.2,69.3,29.84,West,270,5.5,5.5,59,0.00,,OVC,0.00,0.00,VWS V14.00,2013-06-25 23:06:00,
2013-06-25 19:11:00,84.9,69.5,29.83,WSW,248,0.0,0.0,60,0.00,,OVC,0.00,0.00,VWS V14.00,2013-06-25 23:11:00,
2013-06-25 19:16:00,84.7,69.3,29.83,WNW,292,0.0,0.0,60,0.00,,OVC,0.00,0.00,VWS V14.00,2013-06-25 23:16:00,
2013-06-25 19:21:00,84.5,69.6,29.84,SW,225,6.7,6.7,61,0.00,,OVC,0.00,0.00,VWS V14.00,2013-06-25 23:21:00,
2013-06-25 19:26:00,84.2,69.3,29.84,SW,225,2.6,2.6,61,0.00,,OVC,0.00,0.00,VWS V14.00,2013-06-25 23:26:00,
2013-06-25 19:31:00,84.0,69.1,29.83,WNW,292,0.0,0.0,61,0.00,,OVC,0.00,0.00,VWS V14.00,2013-06-25 23:31:00,
2013-06-25 19:36:00,83.8,68.9,29.84,SW,225,6.2,6.2,61,0.00,,OVC,0.00,0.00,VWS V14.00,2013-06-25 23:36:00,
2013-06-25 19:41:00,83.3,68.9,29.84,SW,225,6.2,6.2,62,0.00,,OVC,0.00,0.00,VWS V14.00,2013-06-25 23:41:00,
2013-06-25 19:46:00,82.9,68.6,29.83,West,270,5.3,5.3,62,0.00,,OVC,0.00,0.00,VWS V14.00,2013-06-25 23:46:00,
2013-06-25 19:51:00,82.5,68.2,29.84,West,270,3.5,3.5,62,0.00,,OVC,0.00,0.00,VWS V14.00,2013-06-25 23:51:00,
2013-06-25 19:56:00,82.2,68.4,29.84,West,270,3.1,3.1,63,0.00,,OVC,0.00,0.00,VWS V14.00,2013-06-25 23:56:00,
2013-06-25 20:01:00,81.6,67.8,29.84,SSW,202,2.0,2.0,63,0.00,,OVC,0.00,0.00,VWS V14.00,2013-06-26 00:01:00,
2013-06-25 20:06:00,81.5,68.2,29.84,WSW,248,0.0,0.0,64,0.00,,OVC,0.00,0.00,VWS V14.00,2013-06-26 00:06:00,
2013-06-25 20:11:00,81.1,67.8,29.85,SW,225,5.5,5.5,64,0.00,,OVC,0.00,0.00,VWS V14.00,2013-06-26 00:11:00,
2013-06-25 20:16:00,80.7,67.4,29.85,WNW,292,0.0,0.0,64,0.00,,OVC,0.00,0.00,VWS V14.00,2013-06-26 00:16:00,
2013-06-25 20:21:00,80.4,67.1,29.85,SSW,202,0.0,0.0,64,0.00,,OVC,0.00,0.00,VWS V14.00,2013-06-26 00:21:00,
2013-06-25 20:26:00,80.2,67.4,29.85,WSW,248,1.5,1.5,65,0.00,,OVC,0.00,0.00,VWS V14.00,2013-06-26 00:26:00,
2013-06-25 20:31:00,79.8,67.0,29.85,WSW,248,2.6,2.6,65,0.00,,OVC,0.00,0.00,VWS V14.00,2013-06-26 00:31:00,
2013-06-25 20:36:00,79.7,66.9,29.85,West,270,0.0,0.0,65,0.00,,OVC,0.00,0.00,VWS V14.00,2013-06-26 00:36:00,
2013-06-25 20:41:00,79.5,67.2,29.85,West,270,1.3,1.3,66,0.00,,OVC,0.00,0.00,VWS V14.00,2013-06-26 00:41:00,
2013-06-25 20:46:00,79.3,66.5,29.85,SW,225,0.0,0.0,65,0.00,,OVC,0.00,0.00,VWS V14.00,2013-06-26 00:46:00,
2013-06-25 20:50:00,78.9,66.6,29.85,West,270,1.1,1.1,66,0.00,,OVC,0.00,0.00,VWS V14.00,2013-06-26 00:50:00,
2013-06-25 20:55:00,78.6,66.3,29.85,SW,225,1.5,1.5,66,0.00,,OVC,0.00,0.00,VWS V14.00,2013-06-26 00:55:00,
2013-06-25 21:00:00,78.6,66.7,29.85,WSW,248,0.0,0.0,67,0.00,,OVC,0.00,0.00,VWS V14.00,2013-06-26 01:00:00,
2013-06-25 21:05:00,78.6,66.7,29.85,WSW,248,0.0,0.0,67,0.00,,OVC,0.00,0.00,VWS V14.00,2013-06-26 01:05:00,
2013-06-25 21:10:00,78.4,66.6,29.85,SW,225,0.0,0.0,67,0.00,,OVC,0.00,0.00,VWS V14.00,2013-06-26 01:10:00,
2013-06-25 21:15:00,78.0,66.2,29.85,WSW,248,3.1,3.1,67,0.00,,OVC,0.00,0.00,VWS V14.00,2013-06-26 01:15:00,
2013-06-25 21:20:00,77.9,66.1,29.85,SW,225,1.3,1.3,67,0.00,,OVC,0.00,0.00,VWS V14.00,2013-06-26 01:20:00,
2013-06-25 21:25:00,77.7,66.3,29.86,WSW,248,1.3,1.3,68,0.00,,OVC,0.00,0.00,VWS V14.00,2013-06-26 01:25:00,
2013-06-25 21:30:00,77.7,65.9,29.86,SW,225,0.0,0.0,67,0.00,,OVC,0.00,0.00,VWS V14.00,2013-06-26 01:30:00,
2013-06-25 21:35:00,77.5,66.1,29.86,SW,225,0.0,0.0,68,0.00,,OVC,0.00,0.00,VWS V14.00,2013-06-26 01:35:00,
2013-06-25 21:40:00,77.5,66.1,29.86,WSW,248,0.0,0.0,68,0.00,,OVC,0.00,0.00,VWS V14.00,2013-06-26 01:40:00,
2013-06-25 21:45:00,77.3,65.9,29.86,West,270,2.2,2.2,68,0.00,,OVC,0.00,0.00,VWS V14.00,2013-06-26 01:45:00,
2013-06-25 21:50:00,77.1,65.7,29.86,WSW,248,0.0,0.0,68,0.00,,OVC,0.00,0.00,VWS V14.00,2013-06-26 01:50:00,
2013-06-25 21:55:00,77.1,65.7,29.86,WSW,248,0.0,0.0,68,0.00,,OVC,0.00,0.00,VWS V14.00,2013-06-26 01:55:00,
2013-06-25 22:00:00,76.8,65.4,29.86,SW,225,4.2,4.2,68,0.00,,OVC,0.00,0.00,VWS V14.00,2013-06-26 02:00:00,
2013-06-25 22:05:00,76.8,65.4,29.86,SW,225,0.0,0.0,68,0.00,,OVC,0.00,0.00,VWS V14.00,2013-06-26 02:05:00,
2013-06-25 22:10:00,76.8,65.9,29.86,WNW,292,0.0,0.0,69,0.00,,OVC,0.00,0.00,VWS V14.00,2013-06-26 02:10:00,
2013-06-25 22:15:00,76.6,65.7,29.86,WSW,248,0.8,0.8,69,0.00,,OVC,0.00,0.00,VWS V14.00,2013-06-26 02:15:00,
2013-06-25 22:20:00,76.6,65.3,29.86,SW,225,0.0,0.0,68,0.00,,OVC,0.00,0.00,VWS V14.00,2013-06-26 02:20:00,
2013-06-25 22:25:00,76.2,64.9,29.86,SW,225,1.1,1.1,68,0.00,,OVC,0.00,0.00,VWS V14.00,2013-06-26 02:25:00,
2013-06-25 22:30:00,76.2,65.3,29.86,SW,225,0.6,0.6,69,0.00,,OVC,0.00,0.00,VWS V14.00,2013-06-26 02:30:00,
2013-06-25 22:35:00,76.1,65.2,29.85,WSW,248,0.0,0.0,69,0.00,,OVC,0.00,0.00,VWS V14.00,2013-06-26 02:35:00,
2013-06-25 22:40:00,76.1,65.2,29.85,WSW,248,0.0,0.0,69,0.00,,OVC,0.00,0.00,VWS V14.00,2013-06-26 02:40:00,
2013-06-25 22:45:00,75.9,65.0,29.85,SW,225,2.4,2.4,69,0.00,,OVC,0.00,0.00,VWS V14.00,2013-06-26 02:45:00,
2013-06-25 22:50:00,75.9,65.0,29.85,West,270,1.1,1.1,69,0.00,,OVC,0.00,0.00,VWS V14.00,2013-06-26 02:50:00,
2013-06-25 22:55:00,75.9,65.0,29.85,WSW,248,0.0,0.0,69,0.00,,OVC,0.00,0.00,VWS V14.00,2013-06-26 02:55:00,
2013-06-25 23:00:00,75.9,65.0,29.85,SSW,202,2.4,2.4,69,0.00,,OVC,0.00,0.00,VWS V14.00,2013-06-26 03:00:00,
2013-06-25 23:05:00,75.9,65.0,29.85,SW,225,4.4,4.4,69,0.00,,OVC,0.00,0.00,VWS V14.00,2013-06-26 03:05:00,
2013-06-25 23:10:00,75.9,65.0,29.85,West,270,0.0,0.0,69,0.00,,OVC,0.00,0.00,VWS V14.00,2013-06-26 03:10:00,
2013-06-25 23:15:00,75.9,65.0,29.85,NW,315,1.1,1.1,69,0.00,,OVC,0.00,0.00,VWS V14.00,2013-06-26 03:15:00,
2013-06-25 23:20:00,76.1,65.2,29.85,WSW,248,3.3,3.3,69,0.00,,OVC,0.00,0.00,VWS V14.00,2013-06-26 03:20:00,
2013-06-25 23:25:00,76.2,65.3,29.85,WSW,248,2.0,2.0,69,0.00,,OVC,0.00,0.00,VWS V14.00,2013-06-26 03:25:00,
2013-06-25 23:30:00,76.2,65.3,29.85,WSW,248,0.0,0.0,69,0.00,,OVC,0.00,0.00,VWS V14.00,2013-06-26 03:30:00,
2013-06-25 23:35:00,76.4,65.9,29.84,South,180,4.6,4.6,70,0.00,,OVC,0.00,0.00,VWS V14.00,2013-06-26 03:35:00,
2013-06-25 23:40:00,76.6,66.1,29.84,WSW,248,3.8,3.8,70,0.00,,OVC,0.00,0.00,VWS V14.00,2013-06-26 03:40:00,
2013-06-25 23:45:00,76.6,66.1,29.83,WSW,248,0.4,0.4,70,0.00,,OVC,0.00,0.00,VWS V14.00,2013-06-26 03:45:00,
2013-06-25 23:50:00,76.8,66.3,29.83,West,270,2.9,2.9,70,0.00,,OVC,0.00,0.00,VWS V14.00,2013-06-26 03:50:00,
2013-06-25 23:55:00,76.8,66.7,29.83,West,270,2.6,2.6,71,0.00,,OVC,0.00,0.00,VWS V14.00,2013-06-26 03:55:00,